Location: Invercargill
(46.4000°S, 168.3500°E)
Time: 08:16:00
(UTC+13:00)

Lacrosse 5 rocket - Pass Details

Date: 24 January 2019
Orbit: 459 x 639 km, 57.0° (Epoch: 15 October)

Event Time Altitude Azimuth Distance (km) Brightness Sun altitude
Rises 22:35:55 0° 234° (SW) 2,598 7.0 -10.0°
Reaches altitude 10° 22:38:39 10° 215° (SW) 1,686 5.3 -10.4°
Maximum altitude 22:41:20 18° 169° (S) 1,238 3.5 -10.7°
Drops below altitude 10° 22:43:58 10° 123° (ESE) 1,647 3.6 -11.0°
Enters shadow 22:46:18 - 105° (ESE) 2,403 4.3 -11.3°
